Location: Lugrin
(46.4033°N, 6.6674°E)
Time: 06:01:02
(UTC+00:00)

Tsikada Rocket - Pass Details

Date: 18 September 2020
Orbit: 958 x 1009 km, 82.9° (Epoch: 23 October)

Event Time Altitude Azimuth Distance (km) Brightness Sun altitude
Rises 17:54:16 0° 351° (N) 3,655 7.2 -3.6°
Reaches altitude 10° 17:56:47 10° 351° (N) 2,702 6.5 -4.0°
Maximum altitude 18:02:58 89° 85° (E) 965 4.1 -5.1°
Drops below altitude 10° 18:09:08 10° 173° (S) 2,687 6.2 -6.1°
Sets 18:11:37 0° 174° (S) 3,633 6.8 -6.6°
